Location: Elmsmere
(40.9284°N, 73.8207°W)
Time: 20:43:23
(UTC+00:00)

STARLINK-5231 - Pass Details

Date: 27 November 2022
Orbit: 355 x 363 km, 53.2° (Epoch: 03 February)

Event Time Altitude Azimuth Distance (km) Brightness Sun altitude
Exits shadow 10:22:16 16° 204° (SSW) 1,039 ? -17.4°
Drops below altitude 10° 10:23:30 10° 182° (S) 1,342 ? -17.2°
Sets 10:25:52 0° 163° (SSE) 2,178 ? -16.8°
